Location: Unspecified
(58.9933°N, 5.6375°E)
Time: 13:29:55
(UTC+02:00)

CZ-3 Stage 3 - Visible Passes

Search period start: 29 May 2016 00:00
Search period end: 08 June 2016 00:00
Orbit: 423 x 34781 km, 30.4° (Epoch: 28 May)

Date Brightness Start Highest point End Pass type
(mag) Time Alt. Az. Time Alt. Az. Time Alt. Az.
29 May 5.7 02:24:39 10° SW 02:31:35 12° SSW 02:35:45 10° S visible
01 Jun 5.6 02:14:51 10° SW 02:23:05 13° SSW 02:27:41 10° S visible
04 Jun 5.6 02:05:06 10° SW 02:14:35 13° SSW 02:19:33 10° S visible
07 Jun 5.6 01:55:23 10° SW 02:06:05 14° SSW 02:11:21 10° S visible
